Weather History for KAUW - June, 2013

Change the Weather History Date:

Wednesday, June 12, 2013

  Actual Average Record
Temperature  
Mean Temperature 67 °F 64 °F  
Max Temperature 73 °F 75 °F 93 °F (1956)
Min Temperature 60 °F 53 °F 32 °F (1903)
Degree Days  
Heating Degree Days 0 3  
Month to date heating degree days 77 52  
Since 1 June heating degree days 77 52  
Since 1 July heating degree days 8243 8212  
Cooling Degree Days 2 2  
Month to date cooling degree days 8 19  
Year to date cooling degree days 45 38  
Since 1 June cooling degree days 8 19  
Growing Degree Days 16 (Base 50)    
Moisture  
Dew Point 58 °F    
Average Humidity 77    
Maximum Humidity 97    
Minimum Humidity 56    
Precipitation  
Precipitation 0.22 in 0.15 in 2.30 in (1990)
Month to date precipitation 2.71 1.77  
Year to date precipitation 17.18 11.68  
Snow  
Snow 0.00 in 0.00 in 0.00 in (2010)
Month to date snowfall 0.0 0.0  
Since 1 June snowfall 0.0  
Since 1 July snowfall 78.8 59.6  
Snow Depth 0.00 in    
Sea Level Pressure  
Sea Level Pressure 29.84 in    
Wind  
Wind Speed 4 mph (ENE)    
Max Wind Speed 16 mph    
Max Gust Speed 21 mph    
Visibility 9 miles    
Events Rain , Thunderstorm    
T = Trace of Precipitation, MM = Missing Value Source: NWS Daily Summary

Daily Weather History Graph

Daily Weather History Graph

Search for Another Location

Airport or City:

Trip Planner

Search our weather history database for the weather conditions in past years. The results will help you decide how hot, cold, wet, or windy it might be!

Date:

Astronomy

Jun. 12, 2013 Rise Set
Actual Time 5:11 AM CDT 8:45 PM CDT
Civil Twilight 4:34 AM CDT 9:22 PM CDT
Nautical Twilight 3:45 AM CDT 10:11 PM CDT
Astronomical Twilight 2:40 AM CDT 11:16 PM CDT
Moon 8:58 AM CDT (6/12) 11:12 PM CDT (6/12)
Length of Visible Light 16h 48m
Length of Day
15h 33m
Waxing Crescent, 14% of the Moon is Illuminated
Jun 12
Waxing Crescent
Jun 16
First Quarter
Jun 23
Full
Jun 29
Last Quarter
Jul 8
New

Hourly Weather History & Observations

Time (CDT) Temp. Dew Point Humidity Pressure Visibility Wind Dir Wind Speed Gust Speed Precip Events Conditions
12:54 AM 66.9 °F 51.1 °F 57% 29.88 in 10.0 mi NE 3.5 mph - N/A   Mostly Cloudy
1:54 AM 66.9 °F 50.0 °F 54% 29.91 in 10.0 mi East 3.5 mph - N/A   Mostly Cloudy
2:54 AM 63.0 °F 54.0 °F 72% 29.90 in 10.0 mi Calm Calm - 0.00 in   Partly Cloudy
3:54 AM 62.1 °F 55.9 °F 80% 29.88 in 10.0 mi East 4.6 mph - N/A   Clear
4:54 AM 62.1 °F 57.9 °F 86% 29.93 in 10.0 mi Calm Calm - N/A   Clear
5:54 AM 60.1 °F 57.9 °F 93% 29.86 in 8.0 mi East 5.8 mph - N/A   Clear
6:54 AM 64.0 °F 57.9 °F 80% 29.88 in 10.0 mi SSE 4.6 mph - N/A   Clear
7:54 AM 64.0 °F 59.0 °F 84% 29.91 in 10.0 mi South 4.6 mph - N/A   Overcast
8:54 AM 66.0 °F 60.1 °F 81% 29.88 in 10.0 mi East 3.5 mph - 0.00 in   Mostly Cloudy
9:54 AM 69.1 °F 57.0 °F 65% 29.85 in 10.0 mi East 9.2 mph - N/A   Clear
10:54 AM 71.1 °F 57.0 °F 61% 29.85 in 10.0 mi East 5.8 mph - N/A   Partly Cloudy
11:54 AM 72.0 °F 57.9 °F 61% 29.84 in 10.0 mi East 4.6 mph - N/A   Overcast
12:54 PM 72.0 °F 57.9 °F 61% 29.83 in 10.0 mi ENE 5.8 mph - N/A   Overcast
1:54 PM 72.0 °F 59.0 °F 64% 29.86 in 10.0 mi South 4.6 mph - 0.00 in Rain Light Rain
2:54 PM 72.0 °F 57.0 °F 59% 29.83 in 10.0 mi East 5.8 mph - 0.00 in   Overcast
3:54 PM 71.1 °F 57.9 °F 63% 29.82 in 10.0 mi NE 4.6 mph - N/A   Overcast
4:17 PM 68.0 °F 60.8 °F 78% 29.82 in 5.0 mi Calm Calm - 0.03 in Rain , Thunderstorm Thunderstorms and Rain
4:32 PM 66.2 °F 62.6 °F 88% 29.79 in 2.0 mi East 9.2 mph - 0.11 in Rain Heavy Rain
4:44 PM 66.2 °F 60.8 °F 83% 29.81 in 8.0 mi NNE 5.8 mph - 0.12 in Rain Light Rain
4:54 PM 66.0 °F 60.1 °F 81% 29.84 in 8.0 mi NNW 5.8 mph - 0.13 in Rain Light Rain
5:09 PM 64.4 °F 60.8 °F 88% 29.79 in 2.0 mi ENE 10.4 mph - 0.05 in Rain Heavy Rain
5:20 PM 64.4 °F 59.0 °F 83% 29.73 in 4.0 mi East 16.1 mph 19.6 mph 0.07 in Rain Rain
5:54 PM 63.0 °F 59.0 °F 87% 29.78 in 9.0 mi Calm Calm - 0.09 in Rain Light Rain
6:54 PM 64.9 °F 59.0 °F 81% 29.76 in 10.0 mi Calm Calm - 0.00 in   Mostly Cloudy
7:54 PM 66.0 °F 59.0 °F 78% 29.78 in 10.0 mi NNE 3.5 mph - N/A   Clear
8:54 PM 64.0 °F 60.1 °F 87% 29.83 in 10.0 mi WNW 4.6 mph - N/A   Scattered Clouds
9:54 PM 64.0 °F 61.0 °F 90% 29.82 in 10.0 mi North 3.5 mph - N/A   Overcast
10:54 PM 63.0 °F 60.1 °F 90% 29.81 in 10.0 mi NNW 3.5 mph - N/A   Clear
11:54 PM 61.0 °F 59.0 °F 93% 29.82 in 9.0 mi Calm Calm - N/A   Scattered Clouds